Lid_Strength_Index
3 3 2 3 2 1 1 1 1 1 0 0 0 0 0 -0 -0 -0 -0 1 1 1 -0 -1 -1 -1 1 5 6 1 -1 -2 -0 1 3 5 7 7 9 8 8 10 9 7 6 6 7
3 3 2 2 2 2 1 1 1 1 1 0 0 -0 -0 -1 -1 -0 -0 -0 0 0 -0 -1 -1 -1 3 9 1 -0 1 1 1 2 3 4 6 5 8 8 9 8 7 8 7 7 7
4 3 2 3 3 2 1 1 1 1 1 0 0 -1 -1 -2 -2 -1 -1 -1 -0 0 -0 -1 -1 1 4 7 2 0 1 2 1 2 4 3 4 6 6 9 6 7 10 9 8 8 8
4 2 3 3 3 2 1 1 1 1 1 0 -1 -1 -2 -2 -2 -2 -1 -1 -0 0 -0 -1 -0 2 7 2 2 2 2 3 2 2 2 2 2 5 7 6 8 10 10 14 9 8 7
3 4 3 3 2 2 2 2 1 1 0 -0 -1 -2 -2 -2 -2 -2 -1 -1 -1 -0 -0 -1 2 3 7 -0 4 2 3 3 3 2 2 2 3 6 7 10 13 12 16 14 12 8 8
4 4 3 3 2 2 2 2 2 1 0 -0 -1 -2 -2 -2 -2 -1 -1 -2 -1 0 1 0 2 6 5 6 3 3 3 3 4 4 5 6 7 10 10 12 17 15 16 14 14 10 10
4 3 3 3 2 2 2 2 1 0 0 -1 -2 -2 -2 -2 -1 -1 -0 2 5 6 4 7 6 6 5 3 3 4 3 4 4 6 11 8 11 14 12 10 10 12 13 13 12 10 12
4 3 4 3 2 2 2 2 1 0 -0 -2 -1 -1 -2 -2 -1 -1 0 5 4 4 9 4 5 5 4 3 7 4 3 7 8 11 9 11 14 10 9 10 11 12 13 13 12 11 12
4 4 3 3 2 2 2 2 1 0 -0 -1 -1 -1 -2 -1 -1 0 2 3 0 2 8 7 5 6 5 4 7 6 4 6 9 11 11 13 10 8 9 10 12 12 14 14 13 12 13
4 4 3 3 2 2 2 2 1 0 -0 -1 -1 -1 -1 -2 1 1 3 1 -0 1 12 10 8 6 4 5 8 4 3 6 8 11 10 11 9 9 10 11 11 14 11 11 12 14 18
5 4 4 3 3 3 2 2 2 1 -0 -1 -1 -1 -2 -1 2 4 2 -0 -0 3 22 10 9 3 4 7 7 6 3 5 10 10 10 12 11 11 12 11 10 12 10 12 13 16 17
5 5 4 3 3 3 2 2 2 1 -1 -1 -1 -1 -1 0 1 1 -0 0 3 13 20 13 9 9 9 8 8 6 6 5 5 9 9 10 8 9 10 10 10 10 12 14 14 17 23
5 5 4 3 3 3 2 2 2 0 -2 -2 -1 -1 -0 -0 4 -0 -0 4 16 18 11 13 12 10 10 11 10 9 10 11 12 15 15 11 11 9 9 12 10 12 16 22 23 24 22
5 5 4 4 3 3 3 3 2 0 -2 -1 -1 -1 -0 -0 -1 2 4 12 19 14 14 10 10 10 13 10 11 10 11 13 10 12 14 16 18 11 10 12 13 13 15 21 23 22 21
5 5 4 3 4 3 3 3 2 0 -2 -1 -0 1 1 1 1 4 8 17 16 13 11 11 11 14 13 11 11 11 11 12 11 11 15 17 16 10 10 9 10 13 17 14 19 20 23
5 5 5 4 4 3 3 2 2 -0 -1 -1 4 4 4 1 3 5 11 13 13 11 9 9 14 13 15 13 13 12 12 10 11 9 10 12 17 11 9 9 9 12 12 19 22 26 25
5 5 5 4 4 4 3 2 2 0 -1 1 7 7 5 3 4 9 14 12 11 8 8 10 12 13 12 13 12 13 12 10 9 10 9 11 14 14 10 13 14 13 14 16 17 19 22
6 6 5 5 4 3 2 2 2 1 0 4 9 13 5 3 11 10 12 10 10 9 7 9 10 10 12 11 13 13 13 12 9 9 11 10 14 20 14 12 11 13 14 16 22 22 20
6 6 5 5 4 4 3 2 2 2 1 4 11 9 5 5 12 13 9 10 10 9 9 9 11 10 11 12 14 13 11 9 8 9 11 11 16 21 18 15 13 15 13 14 15 15 23
6 6 5 5 5 5 4 3 3 2 2 5 10 15 9 7 8 11 12 11 11 8 9 9 10 10 11 12 12 12 12 9 7 7 7 9 14 17 20 19 16 18 14 14 14 18 20
6 6 5 6 5 5 5 4 3 3 2 3 8 12 10 13 10 9 9 10 11 11 8 8 10 10 10 13 12 12 11 10 8 7 9 12 18 17 15 13 15 15 15 14 18 16 20
7 6 6 6 5 5 5 5 4 3 3 7 9 9 8 9 8 11 10 11 11 10 10 11 11 10 10 12 12 12 12 12 13 11 12 12 19 17 18 14 14 16 14 15 15 15 15
6 6 6 6 5 5 6 5 4 3 4 7 6 5 7 10 10 12 12 10 10 9 8 8 9 10 11 10 10 10 10 10 11 12 12 13 16 18 20 15 15 18 15 15 15 14 13
7 6 6 6 6 6 6 6 5 4 4 6 6 7 9 12 11 11 9 9 9 9 10 8 8 9 8 6 7 8 8 10 10 11 10 13 14 16 20 17 22 13 11 11 13 12 11
7 6 6 6 6 6 6 6 6 5 4 6 6 7 8 11 11 10 9 9 9 8 9 9 7 7 7 8 11 13 13 12 12 10 9 9 12 16 19 20 16 13 11 12 13 13 11
7 7 6 7 6 6 6 6 6 6 5 5 6 5 7 9 11 8 9 9 10 10 9 9 6 6 7 9 12 15 17 14 15 13 9 9 10 14 18 19 19 14 12 10 10 16 10
7 7 6 7 7 6 6 6 6 6 5 6 6 5 7 9 7 7 10 9 7 8 10 8 8 8 7 11 14 15 15 12 16 15 15 14 13 16 17 18 16 12 11 9 16 14 10
7 7 6 7 7 6 6 6 6 6 5 6 6 4 7 8 7 5 5 7 7 7 10 8 9 9 10 13 13 13 14 13 15 13 13 14 15 16 15 17 19 10 10 12 10 10 10
7 7 6 7 6 6 6 6 6 6 5 4 7 4 5 8 7 5 4 3 4 4 6 8 8 9 8 11 12 11 13 12 14 16 11 14 13 14 14 15 11 10 9 8 9 10 11